星链-3945 (STARLINK-3945 )

导读 | 豆包AI

STARLINK-3945是美国太空探索技术公司(SpaceX)于2022年5月18日发射的星链(Starlink)低轨互联网卫星,隶属于星链全球卫星互联网星座。 星链卫星采用平板设计,单星重约227kg,搭载氪工质霍尔推进器,具备自主避撞能力,寿命末期会主动离轨坠入大气层烧毁。这类卫星旨在为全球偏远无基础设施区域提供高速低延迟宽带互联网服务。

Basic Information
目录编号:
52691
目录名称:
STARLINK-3945
国际标识:
2022-053AM
轨道中心:
EARTH
卫星名称:
星链-3945
卫星全名:
星链-3945 (STARLINK-3945 )
卫星状态:
已陨落 最后检测时间 2024-12-26
发射日期:
2022-05-18 UTC
国别 :
美国 (US)
星等 :
--
Orbit Information
数据来源 国际轨道数据
星历时间: 2024-12-26T10:16:56+0800
轨道信息已过期490天
半长轴: 6533.621km
偏心率: 0.0004683
轨道倾角: 53.203°
近地点辐角 210.140°
升交点赤经 294.561°
平近点角 237.666°
近地点: 152.426km
远地点: 158.546km
周期: 87.597分钟
每日圈数: 16.438869
Detailed Information
固有亮度:
5
最大亮度:
2.5
卫星平台:
Starlink v1.5
覆盖范围:
全球
运营商:
太空探索技术公司
运营商所在国:
美国
制造商(研发单位):
太空探索技术公司
制造商所在国:
美国
使用方式:
暂无
Satellite Introduction
星链(Starlink)计划是由太空探索技术公司(SpaceX)提出的一个巨型低轨卫星互联网星座项目,计划在2019年至2024年间在太空搭建由约1.2万颗卫星组成的“星链”网络,其中1584颗将部署在地球上空550千米处的近地轨道,并从2020年开始工作。该卫星仍在工作。